Find OneWeb SL0595

NORAD ID: 54661 Int'l Des: 2022-166 Owner: ONEWEBN Country: UK Constellation: oneweb operational
LEOCIRCULARPOLARONEWEB_TYPE

Live Position

Loading 3D Globe...

About OneWeb SL0595

Description loading...

Upcoming Passes

Passes for default location (London). Set your location on the main map for personalized predictions.

Altitude History

Loading altitude history...

Two-Line Element Set

1 54661U 22166V 26120.86973015 .00000044 00000-0 74227-4 0 9993
2 54661 87.9230 253.3891 0001664 97.2409 262.8914 13.21824232165284
Epoch: Apr 30, 2026 • Age: 11 hours

Current Status

Altitude 1189.5 km
Velocity 7.27 km/s
Sub-Earth Point 75.88°N, 81.3°E
Launch Date Dec 8, 2022
Age 3.3 years
Type internet

Technical Details

Classification Payload
Mass 148.00 kg
Dry Mass 140.00 kg
Total Mass 148.00 kg
Length 1.30 m
Diameter 1.00 m
Span 5.00 m
Shape Trapezoid+2 pan
Manufacturer ONEWUS
Bus Type ARROW
Phase Status In Orbit
Owner/State ONEWEBN/UK

Most Searched